Location: JAPAN
(35.1974°N, 137.0216°E)
Time: 19:51:14
(UTC+09:00)

ISS - Visible Passes

Search period start: 26 September 2017 00:00
Search period end: 06 October 2017 00:00
Orbit: 401 x 407 km, 51.6° (Epoch: 26 September)

Date Brightness Start Highest point End Pass type
(mag) Time Alt. Az. Time Alt. Az. Time Alt. Az.
26 Sep -3.2 18:06:43 10° SSW 18:09:45 37° SE 18:12:49 10° ENE visible
26 Sep -1.4 19:43:49 10° W 19:46:19 20° NNW 19:46:25 20° NNW visible
27 Sep -2.3 18:50:48 10° WSW 18:53:49 34° NW 18:56:39 11° NNE visible
28 Sep -0.8 19:37:20 10° NW 19:38:23 11° NNW 19:39:21 10° N visible
29 Sep -1.2 18:43:30 10° WNW 18:45:44 17° NNW 18:47:59 10° NNE visible
